Kelso-Longview, WA

2:40 PM PDT on March 23, 2017 (GMT -0700)
Kelso-Longview

Weather History for KKLS - November, 2011

Change the Weather History Date:

Saturday, November 26, 2011

  Actual Average Record
Temperature  
Mean Temperature 48 °F -  
Max Temperature 51 °F 47 °F 60 °F (2014)
Min Temperature 44 °F 36 °F 24 °F (2015)
Degree Days  
Heating Degree Days 18    
Moisture  
Dew Point 38 °F    
Average Humidity 70    
Maximum Humidity 76    
Minimum Humidity 58    
Precipitation  
Precipitation 0.00 in - - ()
Sea Level Pressure  
Sea Level Pressure 30.30 in    
Wind  
Wind Speed 7 mph (SE)    
Max Wind Speed 16 mph    
Max Gust Speed 25 mph    
Visibility 10 miles    
Events      
Averages and records for this station are not official NWS values.
T = Trace of Precipitation, MM = Missing Value Source: NWS Daily Summary

Daily Weather History Graph

Daily Weather History Graph

Search for Another Location

Airport or City:

Trip Planner

Search our weather history database for the weather conditions in past years. The results will help you decide how hot, cold, wet, or windy it might be!

Date:

Astronomy

Nov. 26, 2011 Rise Set
Actual Time 7:27 AM PST 4:30 PM PST
Civil Twilight 6:53 AM PST 5:03 PM PST
Nautical Twilight 6:16 AM PST 5:40 PM PST
Astronomical Twilight 5:40 AM PST 6:16 PM PST
Moon 9:06 AM PST (11/26) 6:04 PM PST (11/26)
Length of Visible Light 10h 10m
Length of Day
9h 03m
Waxing Crescent, 4% of the Moon is Illuminated
Nov 26
Waxing Crescent
Dec 2
First Quarter
Dec 10
Full
Dec 17
Last Quarter
Dec 24
New

Hourly Weather History & Observations

Time (PST) Temp. Windchill Dew Point Humidity Pressure Visibility Wind Dir Wind Speed Gust Speed Precip Events Conditions
12:15 AM 44.6 °F 41.4 °F 37.4 °F 76% 30.38 in 10.0 mi SSE 5.8 mph - N/A   Overcast
12:35 AM 44.6 °F 40.7 °F 37.4 °F 76% 30.38 in 10.0 mi SE 6.9 mph - N/A   Overcast
12:55 AM 44.6 °F - 37.4 °F 76% 30.37 in 10.0 mi Calm Calm - N/A   Scattered Clouds
1:15 AM 44.6 °F 43.1 °F 37.4 °F 76% 30.38 in 10.0 mi SE 3.5 mph - N/A   Mostly Cloudy
1:35 AM 44.6 °F 40.7 °F 37.4 °F 76% 30.38 in 10.0 mi SE 6.9 mph - N/A   Overcast
1:55 AM 44.6 °F 40.7 °F 37.4 °F 76% 30.38 in 10.0 mi SE 6.9 mph - N/A   Overcast
2:35 AM 44.6 °F 40.7 °F 37.4 °F 76% 30.38 in 10.0 mi SSE 6.9 mph - N/A   Overcast
2:55 AM 44.6 °F 40.7 °F 37.4 °F 76% 30.37 in 10.0 mi SE 6.9 mph - N/A   Overcast
3:15 AM 44.6 °F 39.2 °F 37.4 °F 76% 30.37 in 10.0 mi SSE 10.4 mph - N/A   Overcast
3:35 AM 44.6 °F 39.7 °F 37.4 °F 76% 30.36 in 10.0 mi SSE 9.2 mph - N/A   Overcast
3:55 AM 44.6 °F 40.2 °F 37.4 °F 76% 30.35 in 10.0 mi SSE 8.1 mph - N/A   Overcast
4:15 AM 44.6 °F 40.2 °F 37.4 °F 76% 30.35 in 10.0 mi SSE 8.1 mph - N/A   Overcast
4:35 AM 44.6 °F 39.7 °F 37.4 °F 76% 30.36 in 10.0 mi SE 9.2 mph - N/A   Overcast
4:55 AM 44.6 °F 40.7 °F 37.4 °F 76% 30.35 in 10.0 mi SE 6.9 mph - N/A   Overcast
5:15 AM 44.6 °F 40.2 °F 37.4 °F 76% 30.34 in 10.0 mi SSE 8.1 mph - N/A   Overcast
5:35 AM 44.6 °F 41.4 °F 37.4 °F 76% 30.34 in 10.0 mi SSE 5.8 mph - N/A   Overcast
5:55 AM 46.4 °F 43.5 °F 37.4 °F 71% 30.35 in 10.0 mi SE 5.8 mph - N/A   Overcast
6:15 AM 46.4 °F 42.4 °F 37.4 °F 71% 30.35 in 10.0 mi SSE 8.1 mph - N/A   Overcast
6:35 AM 46.4 °F 44.3 °F 37.4 °F 71% 30.35 in 10.0 mi SE 4.6 mph - N/A   Overcast
6:55 AM 46.4 °F 44.3 °F 37.4 °F 71% 30.35 in 10.0 mi SE 4.6 mph - N/A   Overcast
7:15 AM 46.4 °F 42.9 °F 37.4 °F 71% 30.36 in 10.0 mi SE 6.9 mph - N/A   Overcast
7:35 AM 46.4 °F 44.3 °F 37.4 °F 71% 30.35 in 10.0 mi SE 4.6 mph - N/A   Overcast
7:55 AM 46.4 °F 42.4 °F 37.4 °F 71% 30.36 in 10.0 mi SE 8.1 mph - N/A   Overcast
8:15 AM 46.4 °F 43.5 °F 37.4 °F 71% 30.36 in 10.0 mi SSE 5.8 mph - N/A   Overcast
8:35 AM 46.4 °F 42.9 °F 37.4 °F 71% 30.36 in 10.0 mi SE 6.9 mph - N/A   Overcast
8:55 AM 46.4 °F 41.1 °F 37.4 °F 71% 30.34 in 10.0 mi SE 11.5 mph 17.3 mph N/A   Overcast
9:15 AM 46.4 °F 43.5 °F 37.4 °F 71% 30.35 in 10.0 mi SSE 5.8 mph 17.3 mph N/A   Overcast
9:35 AM 46.4 °F 41.9 °F 37.4 °F 71% 30.35 in 10.0 mi SE 9.2 mph - N/A   Overcast
9:55 AM 46.4 °F 41.9 °F 37.4 °F 71% 30.35 in 10.0 mi SSE 9.2 mph 16.1 mph N/A   Overcast
10:15 AM 48.2 °F - 37.4 °F 66% 30.35 in 10.0 mi SSE 12.7 mph 19.6 mph N/A   Overcast
10:35 AM 48.2 °F - 37.4 °F 66% 30.34 in 10.0 mi SSE 16.1 mph 24.2 mph N/A   Overcast
10:55 AM 48.2 °F - 37.4 °F 66% 30.34 in 10.0 mi SSE 15.0 mph 21.9 mph N/A   Overcast
11:15 AM 48.2 °F - 37.4 °F 66% 30.33 in 10.0 mi SSE 12.7 mph 21.9 mph N/A   Mostly Cloudy
11:55 AM 50.0 °F - 37.4 °F 62% 30.31 in 10.0 mi SSE 15.0 mph 25.3 mph N/A   Scattered Clouds
12:15 PM 50.0 °F - 39.2 °F 66% 30.30 in 10.0 mi SSE 15.0 mph 23.0 mph N/A   Scattered Clouds
12:55 PM 50.0 °F - 37.4 °F 62% 30.29 in 10.0 mi SE 10.4 mph 17.3 mph N/A   Mostly Cloudy
1:15 PM 51.8 °F - 39.2 °F 62% 30.28 in 10.0 mi SE 9.2 mph - N/A   Scattered Clouds
1:35 PM 51.8 °F - 39.2 °F 62% 30.27 in 10.0 mi SE 8.1 mph - N/A   Clear
1:55 PM 51.8 °F - 39.2 °F 62% 30.27 in 10.0 mi SSE 6.9 mph - N/A   Clear
2:15 PM 51.8 °F - 39.2 °F 62% 30.26 in 10.0 mi SSE 8.1 mph - N/A   Clear
2:35 PM 51.8 °F - 39.2 °F 62% 30.26 in 10.0 mi SSE 5.8 mph - N/A   Clear
2:55 PM 51.8 °F - 39.2 °F 62% 30.25 in 10.0 mi SSE 5.8 mph - N/A   Clear
3:15 PM 51.8 °F - 37.4 °F 58% 30.24 in 10.0 mi SSE 8.1 mph - N/A   Clear
3:35 PM 51.8 °F - 37.4 °F 58% 30.25 in 10.0 mi SSE 8.1 mph - N/A   Clear
4:15 PM 51.8 °F - 39.2 °F 62% 30.24 in 10.0 mi SSE 6.9 mph - N/A   Clear
4:35 PM 50.0 °F - 39.2 °F 66% 30.24 in 10.0 mi SSE 5.8 mph - N/A   Clear
4:55 PM 50.0 °F - 39.2 °F 66% 30.23 in 10.0 mi SE 6.9 mph - N/A   Clear
5:15 PM 50.0 °F - 39.2 °F 66% 30.23 in 10.0 mi SSE 4.6 mph - N/A   Clear
5:35 PM 50.0 °F - 37.4 °F 62% 30.23 in 10.0 mi SE 5.8 mph - N/A   Clear
5:55 PM 50.0 °F - 39.2 °F 66% 30.23 in 10.0 mi SSE 4.6 mph - N/A   Clear
6:15 PM 50.0 °F - 39.2 °F 66% 30.23 in 10.0 mi SSE 6.9 mph - N/A   Clear
6:35 PM 48.2 °F - 39.2 °F 71% 30.21 in 10.0 mi SSE 6.9 mph - N/A   Clear
7:15 PM 48.2 °F - 39.2 °F 71% 30.21 in 10.0 mi SSE 5.8 mph - N/A   Clear
7:35 PM 48.2 °F - 39.2 °F 71% 30.20 in 10.0 mi SSE 3.5 mph - N/A   Clear
8:15 PM 48.2 °F - 39.2 °F 71% 30.19 in 10.0 mi Calm Calm - N/A   Clear
8:35 PM 48.2 °F - 39.2 °F 71% 30.19 in 10.0 mi SSE 3.5 mph - N/A   Clear
8:55 PM 48.2 °F - 39.2 °F 71% 30.19 in 10.0 mi SSE 4.6 mph - N/A   Clear
9:15 PM 48.2 °F - 39.2 °F 71% 30.18 in 10.0 mi SE 5.8 mph - N/A   Clear
9:35 PM 48.2 °F - 39.2 °F 71% 30.18 in 10.0 mi SSE 4.6 mph - N/A   Clear
9:55 PM 48.2 °F - 39.2 °F 71% 30.17 in 10.0 mi SE 3.5 mph - N/A   Clear
10:15 PM 48.2 °F - 39.2 °F 71% 30.16 in 10.0 mi SE 5.8 mph - N/A   Clear
10:35 PM 48.2 °F - 39.2 °F 71% 30.15 in 10.0 mi SE 5.8 mph - N/A   Clear
10:55 PM 48.2 °F - 39.2 °F 71% 30.15 in 10.0 mi SE 6.9 mph - N/A   Clear
11:15 PM 48.2 °F - 39.2 °F 71% 30.14 in 10.0 mi SE 10.4 mph 17.3 mph N/A   Clear
11:35 PM 48.2 °F - 39.2 °F 71% 30.14 in 10.0 mi SE 11.5 mph 16.1 mph N/A   Clear